TimeCDT,TemperatureF,Dew PointF,Humidity,Sea Level PressureIn,VisibilityMPH,Wind Direction,Wind SpeedMPH,Gust SpeedMPH,PrecipitationIn,Events,Conditions,WindDirDegrees,DateUTC
12:53 AM,75.0,64.9,71,29.95,10.0,ENE,9.2,20.7,N/A,,Partly Cloudy,60,2013-09-08 05:53:00
1:36 AM,73.4,66.2,78,30.00,10.0,ENE,15.0,-,N/A,,Mostly Cloudy,60,2013-09-08 06:36:00
1:53 AM,73.9,66.0,76,29.97,10.0,ENE,13.8,-,N/A,,Overcast,70,2013-09-08 06:53:00
2:53 AM,73.9,66.0,76,29.98,10.0,ENE,10.4,-,N/A,,Overcast,70,2013-09-08 07:53:00
3:53 AM,71.1,64.9,81,29.98,10.0,ENE,11.5,19.6,N/A,,Overcast,60,2013-09-08 08:53:00
4:36 AM,69.8,62.6,78,30.02,10.0,East,10.4,21.9,N/A,,Overcast,90,2013-09-08 09:36:00
4:53 AM,70.0,62.1,76,29.99,10.0,ENE,13.8,20.7,N/A,,Overcast,70,2013-09-08 09:53:00
5:53 AM,69.1,59.0,70,30.01,10.0,ENE,11.5,-,N/A,,Overcast,70,2013-09-08 10:53:00
6:53 AM,66.9,54.0,63,30.02,10.0,East,9.2,18.4,N/A,,Overcast,90,2013-09-08 11:53:00
7:53 AM,66.9,54.0,63,30.03,10.0,ENE,8.1,-,N/A,,Overcast,70,2013-09-08 12:53:00
8:48 AM,68.0,55.4,64,30.05,10.0,East,6.9,-,N/A,,Overcast,100,2013-09-08 13:48:00
8:53 AM,68.0,55.9,65,30.02,10.0,ESE,11.5,-,N/A,,Overcast,120,2013-09-08 13:53:00
9:00 AM,68.0,55.4,64,30.05,10.0,ESE,9.2,-,N/A,,Mostly Cloudy,110,2013-09-08 14:00:00
9:16 AM,68.0,55.4,64,30.06,10.0,East,8.1,-,N/A,,Mostly Cloudy,90,2013-09-08 14:16:00
9:53 AM,69.1,55.9,63,30.04,10.0,ESE,6.9,-,N/A,,Overcast,110,2013-09-08 14:53:00
10:53 AM,71.1,57.9,63,30.05,10.0,ENE,8.1,-,N/A,,Overcast,70,2013-09-08 15:53:00
11:53 AM,72.0,59.0,64,30.04,10.0,SE,10.4,-,N/A,,Overcast,130,2013-09-08 16:53:00
12:53 PM,75.0,60.1,60,30.01,10.0,SSE,15.0,18.4,N/A,,Overcast,150,2013-09-08 17:53:00
1:53 PM,75.9,61.0,60,29.99,10.0,SE,10.4,-,N/A,,Overcast,140,2013-09-08 18:53:00
2:53 PM,75.0,62.1,64,29.98,10.0,ESE,9.2,17.3,N/A,,Overcast,120,2013-09-08 19:53:00
3:53 PM,73.9,61.0,64,29.95,10.0,ESE,8.1,-,N/A,,Overcast,110,2013-09-08 20:53:00
4:53 PM,73.0,62.1,68,29.93,10.0,SE,9.2,-,N/A,,Overcast,130,2013-09-08 21:53:00
5:53 PM,73.9,62.1,66,29.91,10.0,SE,8.1,-,N/A,,Overcast,140,2013-09-08 22:53:00
6:53 PM,73.0,63.0,71,29.92,10.0,ESE,5.8,-,N/A,,Overcast,110,2013-09-08 23:53:00
7:53 PM,73.0,63.0,71,29.94,10.0,ESE,5.8,-,N/A,,Overcast,120,2013-09-09 00:53:00
8:53 PM,72.0,63.0,73,29.93,10.0,SE,5.8,-,N/A,,Overcast,130,2013-09-09 01:53:00
9:53 PM,72.0,64.0,76,29.93,10.0,East,5.8,-,N/A,,Overcast,100,2013-09-09 02:53:00
10:53 PM,71.1,64.0,78,29.92,10.0,ESE,8.1,-,N/A,,Overcast,110,2013-09-09 03:53:00
11:53 PM,71.1,64.0,78,29.90,10.0,SE,9.2,-,N/A,,Overcast,140,2013-09-09 04:53:00